Tracking 25620 objects as of 18-May-2022
HD Live streaming from Space Station
objects crossing your sky now

COSMOS 2251 DEB

Track COSMOS 2251 DEB now!
10-day predictions


NORAD ID: 34386
Int'l Code: 1993-036QB
Perigee: 706.3 km
Apogee: 726.3 km
Inclination: 74.0 °
Period: 99.0 minutes
Semi major axis: 7087 km
RCS: 0.034 m2 (small)
Launch date: June 16, 1993
Source: Commonwealth of Independent States (former USSR) (CIS)
Launch site: PLESETSK MISSILE AND SPACE COMPLEX (PKMTR)

Note: This is SATELLITE DEBRIS
aabbcc
Your satellite tracking list
Your tracking list is empty




NASA's NSSDC Master Catalog

Two Line Element Set (TLE):
1 34386U 93036QB  22137.09853872  .00007178  00000-0  16673-2 0  9990
2 34386  74.0296   2.7822 0014056  38.4719  87.9836 14.55059452697286
Source of the keplerian elements: AFSPC